"Pseudo-MPEC" for P22osbK

Created 2026 Jul 28 21:35:12 UT using Find_Orb

Click here for an explanation of pseudo-MPECs

 
 Astrometry: 
     P22osbK*0C2026 07 19.58495700 13 22.899-10 32 56.84   ~7NF5 20.37wXNEOCPF52
     P22osbK 0C2026 07 19.59203000 13 22.720-10 33 01.02   ~7NF5 20.37wXNEOCPF52
     P22osbK 0C2026 07 19.59909600 13 22.547-10 33 05.07   ~7NF5 20.37wXNEOCPF52
     P22osbK 0C2026 07 19.60617100 13 22.371-10 33 09.22   ~7NF5 20.35wXNEOCPF52
     P22osbK 1C2026 07 19.79838 00 13 17.80 -10 34 58.1    ~7NF5       VNEOCPQ62
     P22osbK 1C2026 07 19.80336 00 13 17.67 -10 35 01.4    ~7NF5 19.4 GVNEOCPQ62
     P22osbK 3C2026 07 20.60006200 12 58.475-10 42 48.51   ~7NF5 20.08GVNEOCPT14
     P22osbK 3C2026 07 20.60127700 12 58.444-10 42 49.18   ~7NF5 20.01GVNEOCPT14
     P22osbK 3C2026 07 20.60343200 12 58.389-10 42 50.49   ~7NF5 20.07GVNEOCPT14
     P22osbK 0C2026 07 21.41479100 12 38.074-10 50 51.32   ~7NF5 20.09rUNEOCPI41
     P22osbK 3C2026 07 21.57747600 12 33.866-10 52 28.76   ~7NF5 20.05GVNEOCPT14
     P22osbK 3C2026 07 21.57902500 12 33.825-10 52 29.70   ~7NF5 20.03GVNEOCPT14
     P22osbK 3C2026 07 21.58057300 12 33.783-10 52 30.63   ~7NF5 20.03GVNEOCPT14
     P22osbK 0C2026 07 22.07765500 12 20.840-10 57 31.19   ~7NF5 19.9 GXNEOCPR59
     P22osbK KC2026 07 22.07766300 12 20.83 -10 57 30.7    ~7NF5 19.5 GVNEOCPL06
     P22osbK 1B2026 07 22.07875900 12 20.814-10 57 28.82   ~7OE5 19.9 GWNEOCPM21
     P22osbK KC2026 07 22.08584100 12 20.61 -10 57 35.1    ~7NF5 19.8 GVNEOCPL06
     P22osbK 0C2026 07 22.09928200 12 20.278-10 57 43.62   ~7NF5 19.6 GXNEOCPR59
     P22osbK 1B2026 07 22.11097600 12 19.936-10 57 48.37   ~7OE5 20.0 GWNEOCPM21
     P22osbK 0C2026 07 22.12064600 12 19.723-10 57 56.78   ~7NF5 19.9 GXNEOCPR59
     P22osbK 0C2026 07 22.46208000 12 10.592-11 01 22.92   ~7NF5 19.83iUNEOCPI41
     P22osbK 0C2026 07 22.50191500 12 09.659-11 01 47.69   ~7NF5x19.58rUNEOCPI41
     P22osbK KB2026 07 24.30239900 11 19.253-11 20 22.50   ~7O8Z 19.5 GXNEOCPW62
     P22osbK KB2026 07 24.31636600 11 18.845-11 20 31.25   ~7O8Z 19.4 GXNEOCPW62
     P22osbK KB2026 07 24.33033100 11 18.446-11 20 39.92   ~7O8Z 19.4 GXNEOCPW62
     P22osbK 7C2026 07 25.00792400 10 58.534-11 27 46.92   ~7QHo 19.98GWNEOCPK91
     P22osbK 7C2026 07 25.02239400 10 58.090-11 27 56.14   ~7QHo 19.91GWNEOCPK91
     P22osbK 7C2026 07 25.03397200 10 57.742-11 28 03.39   ~7QHo 20.03GWNEOCPK91
     P22osbK KC2026 07 25.08351 00 10 56.22 -11 28 37.7    ~7P75 19.7 rZNEOCPL27
     P22osbK KC2026 07 25.10192 00 10 55.64 -11 28 49.2    ~7P75 19.4 rZNEOCPL27
     P22osbK KC2026 07 25.11997 00 10 55.16 -11 29 00.4    ~7P75 19.6 rZNEOCPL27
     P22osbK 1B2026 07 26.02872600 10 27.382-11 38 43.30   ~7Q1Z 19.5 VZNEOCPM49
     P22osbK 1B2026 07 26.03937500 10 27.053-11 38 49.92   ~7Q1Z 19.6 VZNEOCPM49

Station data:
(F52) Pan-STARRS 2, Haleakala  (N20.707382 W156.255910)  US/Hawaii.
   Observers J. Herman, T. Lowe, P. Minguez, A. Schultz, I. Smith. Measurers
   K. Chambers, T. de Boer, J. Fairlamb, H. Gao, M. Huber, C.-C. Lin, E.
   Magnier, Y. Ramanjooloo, R. Wainscoat, R. Weryk. 1.8-m Ritchey-Chrétien +
   CCD.
(I41) Palomar Mountain--ZTF  (N33.357336 W116.859780)  US/California.
   Observers B. T. Bolin, Z. T. F. Collaboration. Measurers B. T. Bolin,
   Z.-Y. Lin, F. J. Masci. 1.2-m f/2.4 Schmidt.
(K91) Sutherland-LCO A  (S32.380540 E20.810190)  South Africa.  Observers T.
   Lister, S. Greenstreet, E. Gomez. Measurer T. Lister. 1.0-m f/8
   Ritchey-Chrétien + CCD.
(L06) Sormano 2 Observatory, Bellagio Via Lattea  (N45.970100 E9.254030)
   Italy.  Observer G. Ventre. Measurers G. Ventre, P. Sicoli. 0.28-m f/10
   reflector + CCD.
(L27) 29PREMOTE Observatory, Dauban  (N43.999832 E5.647040)  France.
   Observer J.-F. Soulier. 0.20-m f/4 Newtonian reflector + CCD.
(M21) Schiaparelli Southern Observatory, Hakos  (S23.236549 E16.361440)
   Namibia.  Observers A. Aletti, F. Bellini, L. Buzzi, G. Galli. Measurer L.
   Buzzi. 0.36-m f/8.4 reflector + CCD.
(M49) IAS Remote Observatory, Hakos  (S23.236549 E16.361720)  Namibia.
   Observers D. Husar, M. Junius. Measurer D. Husar. 0.25-m f/4.6 reflector +
   CCD.
(Q62) iTelescope Observatory, Siding Spring  (S31.273286 E149.064420)
   Australia/NSW.  Observer H. Sato. 0.30-m f/9 reflector + CCD.
(R59) Camarasa Observatory, Astrocamp Nerpio  (N38.165429 W2.326580)  Spain.
(T14) Mauna Kea-UH/Tholen NEO Follow-Up (CFHT)  (N19.825252 W155.468876)
   US/Hawaii.  Observer R. Weryk. 3.6-m Canada-France-Hawaii Telescope.
(W62) Comet Hunter Observatory2, New Ringgold  (N40.745185 W75.862390)
   US/Pennsylvania.  Observer J. Maikner. 0.30-m f/3.8 Riccardi-Honders + CCD.

Orbital elements:  P22osbK
   Perihelion 2027 Jul 21.130758 +/- 3.8 TT =  3:08:17.4 (JD 2461607.630758)
Epoch 2026 Jul 26.0 TT = JDT 2461247.5   Earth MOID: 0.6947   Ju: 0.5014
M 359.665584603 +/- 0.8             (J2000 ecliptic)             AutoNEOCP
n   0.000928594 +/- 0.00239         Peri.  305.265328 +/- 1.2
a 104.0523795 +/- 86.6              Node   177.833314 +/- 0.13
e   0.98570916 +/- 0.0209           Incl.  137.077270 +/- 0.25
P1061.39741                H 13.10  G  0.15   U  8.7
q 1.486995769 +/- 0.0211    Q 206.6177633 +/- 175
32 of 33 observations 2026 July 19-26; mean residual 0".26
Residuals in arcseconds: 
260719 F52  .08+  .09+    260721 T14  .03+  .00     260724 W62  .31-  .22+    
260719 F52  .03-  .01-    260721 T14  .02+  .00     260724 W62  .22-  .27+    
260719 F52  .04-  .03+    260722 R59  .50-  .91-    260724 W62  .02+  .40+    
260719 F52  .10-  .04-    260722 L06  .25-  .20-    260725 K91  .15+  .21-    
260719 Q62  .14-  .36+    260722 M21  .04-  .03+    260725 K91  .12+  .20-    
260719 Q62  .26-  .05-    260722 L06  .24-  .35+    260725 K91  .22+  .06-    
260720 T14  .02+  .03-    260722 R59  .18-  .24-    260725 L27  .16-  .11-    
260720 T14  .02+  .01+    260722 M21  .05-  .02-    260725 L27  .39-  .15+    
260720 T14  .02+  .03-    260722 R59  .16+  .46-    260725 L27  .69+  .47+    
260721 I41  .07-  .50+    260722 I41  .29-  .52+    260726 M49  .12-  .34-    
260721 T14  .02+  .01+    260722 I41( 2.2+  .02+)   260726 M49  .04+  .05-    

Ephemerides (geocentric):
Date (UTC) HH   RA             Dec           delta  r     elong  mag " sig PA
---- --------  ------------   ------------  ------ ------ -----  --- --------
2026 07 28 22  00 08 52.228   -12 10 41.19  3.7918 4.4813 127.4 19.9 .526 131
2026 07 28 23  00 08 50.779   -12 11 09.53  3.7909 4.4809 127.4 19.9 .533 131
2026 07 29 00  00 08 49.328   -12 11 37.89  3.7899 4.4805 127.5 19.9 .540 131
2026 07 29 01  00 08 47.875   -12 12 06.27  3.7890 4.4801 127.5 19.9 .548 132
2026 07 29 02  00 08 46.419   -12 12 34.66  3.7881 4.4798 127.6 19.9 .555 132
2026 07 29 03  00 08 44.962   -12 13 03.08  3.7871 4.4794 127.6 19.9 .562 132
2026 07 29 04  00 08 43.502   -12 13 31.51  3.7862 4.4790 127.6 19.9 .570 132
2026 07 29 05  00 08 42.040   -12 13 59.96  3.7852 4.4786 127.7 19.9 .577 132
2026 07 29 06  00 08 40.576   -12 14 28.43  3.7843 4.4782 127.7 19.9 .584 132
2026 07 29 07  00 08 39.110   -12 14 56.92  3.7833 4.4778 127.8 19.9 .592 132
2026 07 29 08  00 08 37.641   -12 15 25.43  3.7824 4.4774 127.8 19.9 .599 132
2026 07 29 09  00 08 36.170   -12 15 53.96  3.7814 4.4771 127.9 19.9 .607 132
2026 07 29 10  00 08 34.697   -12 16 22.51  3.7805 4.4767 127.9 19.9 .614 132
2026 07 29 11  00 08 33.222   -12 16 51.08  3.7796 4.4763 128.0 19.9 .622 132
2026 07 29 12  00 08 31.744   -12 17 19.66  3.7786 4.4759 128.0 19.9 .630 132
2026 07 29 13  00 08 30.265   -12 17 48.27  3.7777 4.4755 128.1 19.9 .637 132
2026 07 29 14  00 08 28.783   -12 18 16.89  3.7767 4.4751 128.1 19.9 .645 133
2026 07 29 15  00 08 27.299   -12 18 45.53  3.7758 4.4747 128.2 19.9 .653 133
2026 07 29 16  00 08 25.812   -12 19 14.19  3.7749 4.4744 128.2 19.9 .661 133
2026 07 29 17  00 08 24.324   -12 19 42.87  3.7739 4.4740 128.2 19.9 .669 133
2026 07 29 18  00 08 22.833   -12 20 11.57  3.7730 4.4736 128.3 19.9 .677 133
2026 07 29 19  00 08 21.340   -12 20 40.29  3.7720 4.4732 128.3 19.9 .685 133
2026 07 29 20  00 08 19.845   -12 21 09.03  3.7711 4.4728 128.4 19.9 .693 133
2026 07 29 21  00 08 18.347   -12 21 37.78  3.7702 4.4724 128.4 19.9 .701 133
2026 07 29 22  00 08 16.847   -12 22 06.56  3.7692 4.4720 128.5 19.9 .709 133
2026 07 29 23  00 08 15.345   -12 22 35.35  3.7683 4.4717 128.5 19.9 .717 133
2026 07 30 00  00 08 13.841   -12 23 04.17  3.7673 4.4713 128.6 19.9 .726 133
2026 07 30 01  00 08 12.335   -12 23 33.00  3.7664 4.4709 128.6 19.9 .734 133
2026 07 30 02  00 08 10.826   -12 24 01.85  3.7655 4.4705 128.7 19.9 .742 133
2026 07 30 03  00 08 09.315   -12 24 30.72  3.7645 4.4701 128.7 19.9 .751 134
2026 07 30 04  00 08 07.802   -12 24 59.61  3.7636 4.4697 128.8 19.9 .759 134
2026 07 30 05  00 08 06.287   -12 25 28.51  3.7627 4.4693 128.8 19.9 .768 134
2026 07 30 06  00 08 04.769   -12 25 57.44  3.7617 4.4689 128.8 19.9 .776 134
2026 07 30 07  00 08 03.249   -12 26 26.38  3.7608 4.4686 128.9 19.9 .785 134
2026 07 30 08  00 08 01.727   -12 26 55.35  3.7599 4.4682 128.9 19.9 .793 134
2026 07 30 09  00 08 00.203   -12 27 24.33  3.7589 4.4678 129.0 19.9 .802 134
2026 07 30 10  00 07 58.677   -12 27 53.33  3.7580 4.4674 129.0 19.9 .811 134
2026 07 30 11  00 07 57.148   -12 28 22.35  3.7571 4.4670 129.1 19.9 .819 134
2026 07 30 12  00 07 55.617   -12 28 51.39  3.7561 4.4666 129.1 19.9 .828 134
2026 07 30 13  00 07 54.084   -12 29 20.45  3.7552 4.4662 129.2 19.9 .837 134
2026 07 30 14  00 07 52.548   -12 29 49.53  3.7543 4.4659 129.2 19.9 .846 134
2026 07 30 15  00 07 51.010   -12 30 18.63  3.7533 4.4655 129.3 19.9 .855 134
2026 07 30 16  00 07 49.470   -12 30 47.74  3.7524 4.4651 129.3 19.9 .864 135
2026 07 30 17  00 07 47.928   -12 31 16.88  3.7515 4.4647 129.4 19.9 .873 135
2026 07 30 18  00 07 46.384   -12 31 46.03  3.7505 4.4643 129.4 19.9 .882 135
2026 07 30 19  00 07 44.837   -12 32 15.20  3.7496 4.4639 129.4 19.9 .891 135
2026 07 30 20  00 07 43.288   -12 32 44.39  3.7487 4.4635 129.5 19.9 .900 135
2026 07 30 21  00 07 41.737   -12 33 13.60  3.7478 4.4632 129.5 19.9 .910 135